Location: Newark
(46.7000°N, 60.6000°W)
Time: 21:03:32
(UTC+00:00)

Vanguard 1 Rocket - Pass Details

Date: 05 November 2020
Orbit: 656 x 4221 km, 34.3° (Epoch: 30 November)

Event Time Altitude Azimuth Distance (km) Brightness Sun altitude
Rises 09:38:27 0° 202° (SSW) 6,196 11.5 -12.8°
Reaches altitude 10° 09:46:45 10° 175° (S) 4,173 11.0 -11.4°
Maximum altitude 09:49:48 12° 159° (SSE) 3,660 10.9 -10.9°
Drops below altitude 10° 09:52:25 10° 141° (SE) 3,449 11.2 -10.4°
Sets 09:57:17 0° 108° (ESE) 3,813 12.9 -9.6°
